www.pogodaiklimat.ru

Погода и климат >> Архив погоды >> Россия >> Дагестан >> Кочубей


ПОГОДА в Кочубее

  • Прогноз погоды в Кочубее
  • Монитор погоды в Кочубее

АРХИВ ПОГОДЫ в Кочубее

Время (UTC), дата Ветер
(напр.,м/с)
 
Видим.   Явления Облачность Т
(С)
Тd
(С)
f
(%)
Тe
(С)
Тes
(С)
Комфортность P
(гПа)
Po
(гПа)
Тmin
(С)
Tmax
(С)
R
(мм)
R24
(мм)
S
(см)
21 12.07 СЗ 7-10
{13}
4000 м 10/10 600 м
[Sc]
+19.8 +12.6 63 +21 +21 комфорт 1009.1 1011.7
00 13.07 СЗ 3
{10}
4000 м 10/10 300 м
[Sc]
+16.9 +13.4 80 +17 +17 1009.3 1011.9
03 13.07 СЗ 3 20 км 8/8 600 м
[Sc]
+17.4 +13.6 78 +17 +18 1009.4 1012.0 +16.1
06 13.07 З 2 10 км гроза, ливневой дождь 10/8 600 м
[Cb cap Ac As]
+18.6 +15.4 82 +20 +21 1010.0 1012.5
09 13.07 С 5
{10}
20 км {гроза, ливн. осадки} 8/6 600 м
[Cu hum Ac trans Ci fib]
+23.0 +12.0 50 +26 +29 жарко 1010.0 1012.6
12 13.07 СЗ 4 20 км {гроза, ливн. осадки} 3/3 600 м
[Cu hum]
+25.4 +10.0 38 +26 +32 жарко 1009.3 1011.9
15 13.07 СЗ 3 20 км ясно +25.7 +9.3 35 +26 +27 жарко 1009.2 1011.7 +26.0 0.6
18 13.07 З 2 4000 м 8/0
[Ci fib]
+22.5 +9.7 44 +24 +24 комфорт 1010.1 1012.7
21 13.07 СЗ 1 4000 м 6/0
[Ci fib]
+21.3 +10.8 51 +23 +23 комфорт 1010.4 1012.9
00 14.07 Ю 1 4000 м 8/0
[Ci fib]
+20.2 +11.9 59 +23 +23 комфорт 1009.7 1012.3
03 14.07 Ю 1 20 км 9/8 600 м
[Sc Ci fib]
+19.9 +13.7 67 +23 +23 комфорт 1009.8 1012.4 +19.3
06 14.07 Ю 3 20 км {ливн. осадки} 10/6 600 м
[Sc Ac As]
+21.1 +14.2 65 +24 +25 комфорт 1010.5 1013.1
09 14.07 ЮЗ 3 20 км {ливн. осадки} 8/4 600 м
[Cb calv Ac trans]
+23.2 +13.4 54 +26 +32 жарко 1011.1 1013.6
12 14.07 С 2 20 км {ливн. осадки} 8/6 600 м
[Cb calv Ci fib]
+27.3 +9.9 34 +28 +32 жарко 1009.9 1012.5
15 14.07 В 5 20 км 3/3 600 м
[Cb calv]
+25.8 +12.6 44 +28 +28 жарко 1009.9 1012.4 +28.0 0.0
18 14.07 ЮВ 4 4000 м 3/0
[Ci fib]
+21.2 +13.6 62 +24 +24 комфорт 1010.2 1012.8
21 14.07 Ю 2 4000 м ясно +18.4 +14.4 78 +19 +19 1009.6 1012.2
00 15.07 ЮВ 2 4000 м 3/0
[Ci fib]
+16.5 +13.6 83 +17 +17 1008.7 1011.3
03 15.07 В 3 20 км 8/6 600 м
[Sc Ac trans]
+18.6 +15.3 81 +20 +20 1008.0 1010.6 +15.1
06 15.07 В 6
{10}
20 км 1/0
[Ac lent]
+27.0 +11.8 39 +28 +33 жарко 1007.6 1010.1
09 15.07 В 10-15
{15}
20 км 1/0
[Ac lent]
+28.3 +11.3 35 +29 +30 жарко 1006.4 1008.9
12 15.07 В 11-16
{17}
20 км 4/4 600 м
[Cu hum]
+26.7 +15.2 49 +29 +30 жарко 1005.4 1007.9
15 15.07 В 9-13
{16}
20 км 1/1 600 м
[Cu hum]
+24.6 +14.8 54 +27 +27 жарко 1005.0 1007.6 +28.3
18 15.07 В 5
{13}
4000 м 1/1
[Cu hum]
+22.1 +15.7 67 +26 +26 душно 1005.0 1007.5
21 15.07 СВ 1 4000 м 10/9 600 м
[Sc Ac As]
+22.9 +17.1 70 +28 +28 душно 1005.7 1008.3
00 16.07 СЗ 4 4000 м 10/6 600 м
[Sc Ac As]
+22.8 +17.5 72 +28 +28 душно 1004.9 1007.4
03 16.07 СВ 1 20 км 6/0
[Ac cast]
+22.9 +18.3 75 +29 +30 очень
душно
1004.0 1006.5 +22.0
06 16.07 З 4 20 км 8/6 600 м
[Cb calv Ac trans Ci fib]
+27.8 +17.9 55 +32 +35 душно 1004.3 1006.8
09 16.07 З 3 20 км 8/8 600 м
[Cb calv Ac trans]
+29.8 +16.8 46 +33 +43 душно 1003.9 1006.4
12 16.07 СЗ 5 20 км 8/8 600 м
[Cb calv]
+32.8 +15.2 35 +35 +36 душно 1002.9 1005.3
15 16.07 В 4 20 км 4/4 600 м
[Sc]
+30.1 +16.7 45 +34 +34 очень
душно
1003.7 1006.2 +33.1
18 16.07 СВ 2 4000 м 3/3 600 м
[Sc]
+24.1 +17.8 68 +28 +28 душно 1005.6 1008.2
21 16.07 СЗ 1 4000 м ясно +21.4 +17.2 77 +25 +25 комфорт 1006.1 1008.7
00 17.07 СЗ 5 4000 м ясно +21.5 +16.6 74 +25 +25 комфорт 1007.3 1009.8
03 17.07 СЗ 6
{10}
20 км ясно +22.3 +15.4 65 +26 +27 жарко 1008.8 1011.4 +21.1
06 17.07 З 6 20 км ясно +26.4 +13.9 46 +29 +33 жарко 1008.9 1011.4
09 17.07 СЗ 3
{10}
20 км 3/0
[Ac trans]
+30.1 +11.6 32 +31 +43 жарко 1007.6 1010.0
12 17.07 З 3 20 км ясно +32.7 +11.2 27 +33 +42 жарко 1006.4 1008.8
15 17.07 С 2 20 км 3/0
[Ac trans]
+32.0 +11.2 28 +32 +33 жарко 1006.0 1008.5 +33.2
18 17.07 ЮЗ 2 4000 м 4/0
[Ac trans]
+27.3 +13.6 43 +29 +29 жарко 1006.6 1009.1
21 17.07 Ю 2 4000 м 4/0
[Ci fib]
+23.4 +14.6 58 +27 +27 душно 1006.3 1008.8
00 18.07 СВ 5 4000 м 6/0
[Ci fib]
+23.4 +14.5 57 +27 +27 душно 1005.8 1008.4
03 18.07 СВ 4 20 км 3/0
[Ci fib]
+24.2 +18.5 70 +29 +30 душно 1007.0 1009.5 +21.6
06 18.07 В 7
{10}
20 км ясно +28.9 +15.8 45 +32 +35 душно 1006.7 1009.2
09 18.07 СВ 8-11
{12}
20 км ясно +31.4 +13.0 33 +32 +36 жарко 1006.1 1008.6
12 18.07 СВ 0 20 км ясно +31.7 +11.5 29 +32 +47 жарко 1006.2 1008.6
15 18.07 В 5 20 км 3/0
[Ci fib]
+29.8 +11.3 32 +30 +31 жарко 1006.0 1008.5 +31.7
18 18.07 Ю 1 4000 м 3/0
[Ac trans Ci fib]
+25.0 +13.9 50 +27 +27 жарко 1007.4 1009.9
21 18.07 ЮЗ 2 4000 м 8/0
[Ac trans Ci fib]
+23.8 +14.6 56 +26 +26 жарко 1008.1 1010.7
00 19.07 ЮЗ 2 4000 м 9/9 600 м
[Sc]
+24.3 +14.9 56 +27 +27 жарко 1008.9 1011.4
03 19.07 З 3 20 км 8/4 600 м
[Sc Ac trans Ci fib]
+23.0 +17.0 69 +28 +28 душно 1010.3 1012.8 +22.8
06 19.07 СЗ 2 20 км 9/0
[Ac trans]
+29.7 +13.3 37 +31 +37 жарко 1011.0 1013.5
09 19.07 ЮВ 3 20 км 8/0
[Ac cast]
+33.2 +10.6 25 +33 +39 жарко 1010.8 1013.2
12 19.07 В 3 20 км 6/6 600 м
[Cu hum]
+34.7 +11.9 25 +34 +38 очень
жарко
1010.3 1012.8
15 19.07 В 4 20 км 8/4 600 м
[Sc Ci fib]
+33.0 +10.9 26 +33 +33 жарко 1010.1 1013.2 +35.0

 

Местоположение метеостанции Кочубей (Дагестан, Россия): широта 44.40 долгота 46.55 высота над уровнем моря -21 м.

В архиве по умолчанию представлена погода в Кочубее за последнюю неделю. Архивные данные за месяц целиком и за предыдущие месяцы, начиная с января 2011 года, Вы можете получить, выбрав интересующий диапазон дат из раскрывающегося списка и нажав кнопку "Ввод!".


*Определитесь, кто Вы:
робот инопланетянин человек

Внимание! Время в таблицах - всемирное. Для получения местного времени необходимо прибавить поправку, которая равна 3 ч.

Смотрите также архив погоды в соседних городах и на ближайших метеорологических станциях:

Погода в Терекли-Мектебе (Дагестан, Россия) (61 км)
Погода в Артезиане (Калмыкия, Россия) (63 км)
Погода в Кизляре (Дагестан, Россия) (65 км)
Погода на Острове Тюлений (Дагестан, Россия) (74 км)
Погода в Южно-Сухокумске (Дагестан, Россия) (77 км)
Погода в Бабаюрте (Дагестан, Россия) (91 км)
Погода в Шелковской (Чечня, Россия) (98 км)
Погода в Рощино (Ставропольский край, Россия) (111 км)
Погода в Комсомольском (Калмыкия, Россия) (113 км)
Погода в Гудермесе (Чечня, Россия) (122 км)

Пояснения к столбцам:

Ветер - указаны скорость ветра в м/с - средняя за 10 мин, порывы в срок и между сроками (в фигурных скобках) и направление, откуда дует ветер: С - северный, СВ - северо-восточный, В - восточный, ЮВ - юго-восточный, Ю - южный, ЮЗ - юго-западный, З - западный, СЗ - северо-западный.
Видимость - горизонтальная дальность видимости в метрах или километрах. При видимости от 1 до 10 км при отсутствии осадков обычно наблюдается дымка, при ухудшении видимости до 1 км и менее - туман. В сухую погоду видимость может ухудшаться дымом, пылью или мглою.
Явления - указаны атмосферные явления, наблюдавшиеся в срок или в последний час перед сроком; фигурными скобками обозначены явления, наблюдавшиеся между сроками (за 1-3 часа до срока); квадратными скобками обозначены град или гололедные отложения с указанием их диаметра в мм.
Облачность - указаны через наклонную черту общая и нижняя облачность в баллах и высота нижней границы облаков в метрах; квадратными скобками обозначены формы облаков: Ci - перистые, Cs - перисто-слоистые, Cc - перисто-кучевые, Ac - высококучевые, As - высокослоистые, Sc - слоисто-кучевые, Ns - слоисто-дождевые, Cu - кучевые, Cb - кучево-дождевые. Подробнее классификацию облаков см. в Атласе облаков (PDF).
T - Температура воздуха - температура, измеренная на высоте 2 м над землей.
Td - Температура точки росы - температура, при понижении до которой содержащийся в воздухе водяной пар достигнет насыщения.
f - Относительная влажность воздуха - влажноcть воздуха, измеренная на высоте 2 м над землей.
Te - Эффективная температура - температура, которую ощущает одетый по сезону человек в тени. Характеристика душности погоды. При расчете учитывается влияние влажности воздуха и скорости ветра на теплоощущения человека.
Tes - Эффективная температура на солнце - температура, которую ощущает человек, с поправкой на солнечный нагрев. Характеристика знойности погоды. Зависит от высоты солнца над горизонтом, облачности и скорости ветра. Ночью, в пасмурную погоду, а также при ветре 12 м/с и более поправка равна нулю.
P - Атмосферное давление - приведенное к уровню моря атмосферное давление.
Po - Атмосферное давление - измеренное на уровне метеостанции атмосферное давление.
Tmin - Минимальная температура - минимум температуры воздуха на высоте 2 м над землей.
Tmax - Максимальная температура - максимум температуры воздуха на высоте 2 м над землей.
R - Количество осадков - Количество выпавших осадков за период времени, мм. При наведении курсора мыши на число - период времени, за который выпало указанное количество осадков.
R24 - Количество осадков - Количество выпавших осадков за 24 часа, мм.
S - Снежный покров - Высота снежного покрова, см. При наведении курсора мыши на число - состояние снежного покрова и степень покрытия местности в баллах.